Overview Statistics Trail Chart Weather Telemetry Raw packets
 

This is the latest recevied weather packets stored in our database for station/object IU1OLT-6. If no packets are shown the sender has not sent any weather packets the latest 10 day(s).

<< 25 26 27 28 29 30 31 >>
Time Temp. Humidity Pressure Rain* Wind** Luminosity Snow
1788067239 13.33° C 72% 1011.8 hPa 0 mm - - -
1788066326 13.33° C 80% 1011.7 hPa 0 mm - - -
1788065415 12.78° C 84% 1011.6 hPa 0 mm - - -
1788064455 12.78° C 86% 1011.5 hPa 0 mm - - -
1788063495 12.78° C 87% 1011.4 hPa 0 mm - - -
1788062535 13.33° C 84% 1011.3 hPa 0 mm - - -
1788061526 13.33° C 84% 1011.4 hPa 0 mm - - -
1788060519 13.33° C 78% 1011.6 hPa 0 mm - - -
1788059559 13.33° C 64% 1011.5 hPa 0 mm - - -
1788058503 13.89° C 59% 1011.6 hPa 0 mm - - -
1788057543 13.89° C 60% 1011.4 hPa 0 mm - - -
1788056583 13.33° C 68% 1011.7 hPa 0 mm - - -
1788055623 14.44° C 65% 1012 hPa 0 mm - - -
1788054663 13.89° C 58% 1012.1 hPa 0 mm - - -
1788053703 13.33° C 58% 1012.1 hPa 0 mm - - -
1788052743 13.33° C 60% 1012.2 hPa 0 mm - - -
1788051783 13.33° C 61% 1012.2 hPa 0 mm - - -
1788050823 13.33° C 63% 1012.3 hPa 0 mm - - -
1788049863 12.78° C 63% 1012.3 hPa 0 mm - - -
1788048903 12.78° C 64% 1012.4 hPa 0 mm - - -
1788047943 13.33° C 62% 1012.4 hPa 0 mm - - -
1788046983 13.33° C 59% 1012.4 hPa 0 mm - - -
1788046023 12.78° C 58% 1012.3 hPa 0 mm - - -
1788045063 12.78° C 61% 1012.3 hPa 0 mm - - -
1788044151 13.33° C 60% 1012.2 hPa 0 mm - - -

* Rain latest hour (hover to see other rain measurements)
** Current wind speed in m/s (hover to see current wind gust speed)